FW9738 Weather Reports


time (UTC)temp
C
wind
direction
speed
KPH
gust
KPH
rain 1hr
cm
rain 24hr
cm
rain mn
cm
humidity
%
barometer
mb
20260507165747 17 23 4.8 9.7 0.00 0.15 0.15 81 1006.8
20260507165236 16 0 3.2 6.4 0.00 0.15 0.15 80 1006.4
20260507164727 16 338 3.2 11.3 0.00 0.15 0.15 81 1006.5
20260507164216 16 0 3.2 11.3 0.00 0.15 0.15 82 1006.2
20260507163156 16 315 3.2 6.4 0.00 0.15 0.15 81 1006.4
20260507162646 16 0 0.0 3.2 0.00 0.15 0.15 83 1006.2
20260507162135 15 0 0.0 3.2 0.00 0.15 0.15 84 1006.8
20260507161116 15 0 0.0 0.0 0.00 0.15 0.15 88 1006.4
20260507160606 15 68 0.0 0.0 0.00 0.15 0.15 86 1006.9
20260507155546 15 135 0.0 3.2 0.00 0.15 0.15 84 1006.6
20260507155035 16 158 0.0 3.2 0.10 0.15 0.15 83 1006.9
20260507154015 16 158 0.0 0.0 0.13 0.15 0.15 85 1006.3
20260507153506 16 113 0.0 0.0 0.13 0.15 0.15 82 1005.9
20260507152444 16 135 0.0 0.0 0.15 0.15 0.15 83 1005.9
20260507151934 16 158 0.0 0.0 0.15 0.15 0.15 80 1006.1
20260507150914 16 180 0.0 14.5 0.15 0.15 0.15 85 1005.7
20260507150404 16 158 3.2 14.5 0.15 0.15 0.15 83 1005.5
20260507145854 16 158 3.2 12.9 0.15 0.15 0.15 85 1005.1
20260507145343 15 180 0.0 6.4 0.13 0.13 0.13 87 1005.8
20260507144834 15 293 3.2 6.4 0.05 0.05 0.05 83 1006.0
20260507144324 15 248 0.0 11.3 0.03 0.03 0.03 82 1005.5
20260507143813 15 225 3.2 17.7 0.03 0.03 0.03 85 1005.1
20260507143303 15 180 8.0 20.9 0.03 0.03 0.03 85 1005.1
20260507142753 14 248 9.7 22.5 0.00 0.00 0.00 85 1004.9
20260507142244 14 203 9.7 25.7 0.00 0.00 0.00 86 1005.1
20260507141733 15 203 14.5 25.7 0.00 0.00 0.00 83 1005.3
20260507141223 15 225 11.3 24.1 0.00 0.00 0.00 81 1005.1
20260507140204 16 203 8.0 20.9 0.00 0.00 0.00 80 1005.0
20260507135652 17 180 9.7 22.5 0.00 0.00 0.00 72 1005.4
20260507135142 17 180 11.3 25.7 0.00 0.00 0.00 70 1005.7
20260507134633 17 180 12.9 25.7 0.00 0.00 0.00 70 1005.4
20260507134122 16 158 12.9 25.7 0.00 0.00 0.00 70 1005.2
20260507133612 16 203 8.0 25.7 0.00 0.00 0.00 71 1005.3
20260507133102 16 158 8.0 33.8 0.00 0.00 0.00 70 1005.5
20260507132551 16 158 12.9 33.8 0.00 0.00 0.00 71 1005.2
20260507132043 16 203 14.5 32.2 0.00 0.00 0.00 72 1005.3
20260507131534 16 203 14.5 32.2 0.00 0.00 0.00 70 1005.3
20260507131022 16 158 11.3 32.2 0.00 0.00 0.00 72 1005.1
20260507130534 16 203 6.4 25.7 0.00 0.00 0.00 74 1004.9
20260507125458 17 180 12.9 32.2 0.00 0.00 0.00 75 1004.7
20260507124945 17 203 16.1 37.0 0.00 0.00 0.00 72 1004.3
20260507124433 17 180 12.9 37.0 0.00 0.00 0.00 73 1003.9
20260507123920 17 180 16.1 33.8 0.00 0.00 0.00 72 1004.1
20260507123413 17 180 11.3 29.0 0.00 0.00 0.00 74 1004.3
20260507122901 17 158 12.9 33.8 0.00 0.00 0.00 74 1003.8
20260507122350 18 180 16.1 33.8 0.00 0.00 0.00 75 1003.7
20260507121840 18 135 12.9 24.1 0.00 0.00 0.00 79 1003.7
20260507121331 18 158 9.7 25.7 0.00 0.00 0.00 77 1003.4
20260507120820 18 225 16.1 25.7 0.00 0.00 0.00 76 1003.1
20260507120310 18 203 6.4 11.3 0.00 0.00 0.00 77 1002.8
20260507115800 18 180 1.6 14.5 0.00 0.00 0.00 76 1002.8
20260507115250 18 203 4.8 14.5 0.00 0.00 0.00 75 1002.4
20260507114229 19 135 9.7 24.1 0.00 0.00 0.00 75 1002.2
20260507113720 19 225 11.3 24.1 0.00 0.00 0.00 79 1002.0
20260507112659 19 158 4.8 12.9 0.00 0.00 0.00 81 1001.0
20260507112149 19 158 3.2 11.3 0.00 0.00 0.00 82 1000.5
20260507111638 18 158 1.6 6.4 0.00 0.00 0.00 88 1000.1
20260507111130 18 135 0.0 6.4 0.00 0.00 0.00 88 999.9
20260507110619 18 180 1.6 11.3 0.00 0.00 0.00 87 999.8
20260507110108 19 135 3.2 11.3 0.00 0.00 0.00 86 999.6
20260507105559 19 180 1.6 9.7 0.00 0.00 0.00 88 999.5
20260507105048 19 158 3.2 11.3 0.00 0.00 0.00 87 999.2
20260507104539 20 158 1.6 12.9 0.00 0.00 0.00 90 999.0
20260507104030 20 113 6.4 12.9 0.00 0.00 0.00 89 999.0
20260507103519 20 158 3.2 11.3 0.00 0.00 0.00 93 998.5
20260507103008 19 135 3.2 6.4 0.00 0.00 0.00 96 998.6
20260507102458 19 158 3.2 6.4 0.00 0.00 0.00 96 998.0
20260507101438 18 135 0.0 0.0 0.00 0.00 0.00 96 997.3
20260507100929 19 135 0.0 3.2 0.00 0.00 0.00 96 997.2
20260507100418 19 135 0.0 3.2 0.00 0.00 0.00 95 997.1
20260507095907 19 135 0.0 6.4 0.00 0.00 0.00 95 997.2
20260507095357 19 135 0.0 6.4 0.00 0.00 0.00 94 996.9
20260507094847 19 180 1.6 9.7 0.00 0.00 0.00 94 996.9
20260507094347 19 158 0.0 12.9 0.00 0.00 0.00 95 996.8
20260507093827 19 158 1.6 12.9 0.00 0.00 0.00 96 996.5
20260507093317 19 158 1.6 9.7 0.00 0.00 0.00 96 996.3
20260507092806 18 158 3.2 9.7 0.00 0.00 0.00 97 996.4
20260507092257 17 158 0.0 0.0 0.00 0.00 0.00 99 995.9
20260507090726 15 158 0.0 0.0 0.00 0.00 0.00 98 995.8
20260507085706 14 135 0.0 0.0 0.00 0.00 0.00 99 995.7
20260507085155 14 135 0.0 0.0 0.00 0.00 0.00 98 995.6
20260507084646 14 68 0.0 0.0 0.00 0.00 0.00 98 995.8
20260507084135 14 113 0.0 0.0 0.00 0.00 0.00 99 995.6
20260507083625 15 113 0.0 0.0 0.00 0.00 0.00 99 995.7
20260507083116 15 135 0.0 3.2 0.00 0.00 0.00 99 995.4
20260507082606 15 90 0.0 3.2 0.00 0.00 0.00 99 995.4
20260507082056 14 135 0.0 3.2 0.00 0.00 0.00 99 995.2
20260507081545 15 225 0.0 3.2 0.00 0.00 0.00 98 995.4
20260507081035 15 293 0.0 3.2 0.00 0.00 0.00 98 995.2
20260507080525 15 293 0.0 3.2 0.00 0.00 0.00 98 995.2
20260507080015 15 270 0.0 3.2 0.00 0.00 0.00 99 995.3
20260507075505 15 135 0.0 3.2 0.00 0.00 0.00 99 995.1
20260507074954 14 338 0.0 0.0 0.00 0.00 0.00 99 994.8
20260507074446 15 293 0.0 0.0 0.00 0.00 0.00 99 994.8
20260507073935 15 158 0.0 0.0 0.00 0.00 0.00 99 994.9
20260507072914 15 135 0.0 0.0 0.00 0.00 0.00 99 994.8
20260507071854 15 158 0.0 0.0 0.00 0.00 0.00 99 995.1
20260507071343 15 158 0.0 0.0 0.00 0.00 0.00 99 994.9
20260507070833 15 135 0.0 0.0 0.00 0.00 0.00 99 995.1
20260507070324 15 113 0.0 0.0 0.00 0.00 0.00 99 994.8
20260507065814 15 113 0.0 0.0 0.00 0.00 0.00 99 994.9
20260507065306 15 225 0.0 0.0 0.00 0.00 0.00 99 995.0
20260507064752 16 225 0.0 0.0 0.00 0.00 0.00 99 995.0
20260507064243 16 225 0.0 0.0 0.00 0.00 0.00 99 995.1
20260507063733 16 203 0.0 0.0 0.00 0.00 0.00 98 995.2
20260507063222 16 203 0.0 0.0 0.00 0.00 0.00 98 995.3
20260507062712 16 203 0.0 0.0 0.00 0.00 0.00 97 995.4
20260507062203 16 225 0.0 0.0 0.00 0.00 0.00 97 995.3
20260507061144 16 158 0.0 0.0 0.00 0.00 0.00 98 995.3
20260507060632 16 203 0.0 0.0 0.00 0.00 0.00 98 995.5
20260507060123 16 203 0.0 0.0 0.00 0.00 0.00 97 995.6
20260507054032 16 293 0.0 0.0 0.00 0.00 0.00 98 995.7
20260507052502 16 135 0.0 0.0 0.00 0.00 0.00 98 995.5
20260507051441 16 135 0.0 0.0 0.00 0.00 0.00 97 995.5
20260507050931 16 135 0.0 0.0 0.00 0.00 0.00 97 995.7
20260507050422 16 135 0.0 0.0 0.00 0.00 0.00 96 995.6
20260507045911 16 158 0.0 3.2 0.00 0.00 0.00 96 995.5
20260507045401 16 158 0.0 3.2 0.00 0.00 0.00 97 995.8
20260507044851 15 158 0.0 3.2 0.00 0.00 0.00 99 995.8
20260507044341 15 135 0.0 0.0 0.00 0.00 0.00 98 995.6
20260507043831 16 158 0.0 0.0 0.00 0.00 0.00 99 995.6
20260507043320 16 158 0.0 0.0 0.00 0.00 0.00 99 995.7
20260507041751 17 203 0.0 0.0 0.00 0.00 0.00 97 995.9
20260507041241 16 248 0.0 0.0 0.00 0.00 0.00 97 995.9
20260507040222 17 248 0.0 0.0 0.00 0.00 0.00 95 996.0
20260507034652 17 203 0.0 3.2 0.00 0.00 0.00 96 996.2
20260507034139 17 203 0.0 3.2 0.00 0.00 0.00 95 995.8
20260507033630 17 180 1.6 6.4 0.00 0.00 0.00 96 996.3
20260507033120 17 225 0.0 6.4 0.00 0.00 0.00 95 996.4
20260507032610 17 203 3.2 6.4 0.00 0.00 0.00 95 996.4
20260507032059 17 225 0.0 0.0 0.00 0.00 0.00 95 996.2
20260507031550 17 180 0.0 0.0 0.00 0.00 0.00 95 996.0
20260507030529 17 203 0.0 0.0 0.00 0.00 0.00 94 996.2
20260507030019 17 203 0.0 3.2 0.00 0.00 0.00 94 996.3
20260507025508 17 203 0.0 3.2 0.00 0.00 0.00 94 996.3
20260507024958 18 180 0.0 3.2 0.00 0.00 0.00 93 996.2
20260507024449 17 180 1.6 6.4 0.00 0.00 0.00 94 996.4
20260507023938 17 180 0.0 6.4 0.00 0.00 0.00 94 996.5
20260507023428 17 158 3.2 6.4 0.00 0.00 0.00 94 996.5
20260507022408 17 180 3.2 9.7 0.00 0.00 0.00 94 996.3
20260507021858 17 203 3.2 9.7 0.00 0.00 0.00 94 996.6
20260507021348 17 225 3.2 6.4 0.00 0.00 0.00 94 996.5
20260507020838 17 180 0.0 3.2 0.00 0.00 0.00 94 996.4
20260507015818 17 248 1.6 6.4 0.00 0.00 0.00 94 996.9
20260507015308 17 203 1.6 3.2 0.00 0.00 0.00 95 997.0
20260507014758 17 180 0.0 3.2 0.00 0.00 0.00 96 997.3
20260507014247 17 203 0.0 0.0 0.00 0.00 0.00 95 997.0
20260507013737 17 225 0.0 3.2 0.00 0.00 0.00 95 997.0
20260507012717 17 203 0.0 0.0 0.00 0.00 0.00 95 997.3
20260507012206 17 248 0.0 0.0 0.00 0.00 0.00 96 997.3
20260507011656 17 225 0.0 3.2 0.00 0.00 0.00 95 997.6
20260507010126 18 203 0.0 3.2 0.00 0.00 0.00 95 997.5
20260507005616 18 248 0.0 3.2 0.00 0.00 0.00 95 997.8
20260507005105 18 203 0.0 0.0 0.00 0.00 0.00 94 997.8
20260507004556 18 225 0.0 3.2 0.00 0.00 0.00 95 997.9
20260507004047 17 203 0.0 3.2 0.00 0.00 0.00 95 997.9
20260507003536 17 248 0.0 3.2 0.00 0.00 0.00 95 998.0
20260507003025 17 203 1.6 3.2 0.00 0.00 0.00 95 997.8
20260507002516 17 203 0.0 3.2 0.00 0.00 0.00 95 997.9
20260507002006 17 203 0.0 0.0 0.00 0.00 0.00 94 997.9
20260507001455 18 225 0.0 0.0 0.00 0.00 0.00 93 997.7
20260507000944 19 225 0.0 0.0 0.00 0.00 0.00 93 997.7
20260507000435 18 225 0.0 0.0 0.00 0.00 0.00 93 997.8
20260506235925 18 225 0.0 0.0 0.00 0.00 0.00 93 997.8
20260506235414 18 225 0.0 3.2 0.00 0.00 0.00 93 997.8
20260506234905 19 248 0.0 3.2 0.00 0.00 0.00 92 997.9
20260506233335 19 225 0.0 0.0 0.00 0.00 0.00 92 997.8
20260506232823 19 203 0.0 0.0 0.00 0.00 0.00 90 997.7
20260506231805 20 248 0.0 0.0 0.00 0.00 0.00 90 997.9
20260506230757 20 203 0.0 0.0 0.00 0.00 0.00 89 997.8
20260506230233 21 225 0.0 0.0 0.00 0.00 0.00 86 997.7
20260506225723 22 203 0.0 0.0 0.00 0.00 0.00 85 998.0
20260506225213 22 270 0.0 0.0 0.00 0.00 0.00 85 997.7
20260506224702 22 293 0.0 0.0 0.00 0.00 0.00 85 998.0
20260506224153 21 270 0.0 0.0 0.00 0.00 0.00 85 997.9
20260506223642 21 293 0.0 0.0 0.00 0.00 0.00 87 998.1
20260506223133 21 293 0.0 0.0 0.00 0.00 0.00 86 997.8
20260506222623 21 315 0.0 0.0 0.00 0.00 0.00 86 997.9
20260506222113 21 315 0.0 0.0 0.00 0.00 0.00 85 997.8
20260506221602 21 315 0.0 0.0 0.00 0.00 0.00 85 998.0
20260506220543 21 0 0.0 0.0 0.00 0.00 0.00 85 997.7
20260506220033 21 338 0.0 0.0 0.00 0.00 0.00 84 997.6
20260506215012 22 315 0.0 0.0 0.00 0.00 0.00 82 997.8
20260506214502 22 338 0.0 0.0 0.00 0.00 0.00 81 997.9
20260506213952 23 338 0.0 0.0 0.00 0.00 0.00 79 997.8
20260506212931 23 338 0.0 0.0 0.00 0.00 0.00 77 997.8
20260506211911 25 0 0.0 3.2 0.00 0.00 0.00 74 997.8
20260506211401 25 0 1.6 3.2 0.00 0.00 0.00 72 997.7
20260506210340 26 0 0.0 3.2 0.00 0.00 0.00 70 997.8
20260506205830 26 45 0.0 3.2 0.00 0.00 0.00 70 997.7
20260506205321 26 90 0.0 6.4 0.00 0.00 0.00 69 997.6
20260506204810 26 90 0.0 11.3 0.00 0.00 0.00 70 997.4
20260506204300 26 23 4.8 11.3 0.00 0.00 0.00 71 997.8
20260506203241 26 0 3.2 11.3 0.00 0.00 0.00 70 997.3
20260506202730 26 0 3.2 6.4 0.00 0.00 0.00 69 997.3
20260506202220 26 0 0.0 9.7 0.00 0.00 0.00 69 997.3
20260506201710 27 0 1.6 9.7 0.00 0.00 0.00 68 997.5
20260506201159 26 0 6.4 11.3 0.00 0.00 0.00 68 996.8
20260506200650 27 338 6.4 12.9 0.00 0.00 0.00 69 997.4
20260506200140 27 338 1.6 12.9 0.00 0.00 0.00 68 997.1
20260506195629 27 315 0.0 11.3 0.00 0.00 0.00 68 997.3
20260506195119 27 338 0.0 14.5 0.00 0.00 0.00 67 997.4
20260506194609 27 315 9.7 14.5 0.00 0.00 0.00 68 997.2
20260506193549 27 338 3.2 14.5 0.00 0.00 0.00 66 997.4
20260506193040 27 0 8.0 17.7 0.00 0.00 0.00 66 997.5
20260506192529 27 338 6.4 17.7 0.00 0.00 0.00 67 997.4
20260506192019 27 23 6.4 17.7 0.00 0.00 0.00 65 997.4
20260506191512 27 45 3.2 17.7 0.00 0.00 0.00 65 997.5
20260506190958 27 23 0.0 17.7 0.00 0.00 0.00 67 997.3
20260506190448 26 338 8.0 12.9 0.00 0.00 0.00 68 997.7
20260506185939 27 23 0.0 11.3 0.00 0.00 0.00 65 997.5
20260506185429 27 158 0.0 6.4 0.00 0.00 0.00 67 997.4
20260506184918 27 68 3.2 9.7 0.00 0.00 0.00 66 997.8
20260506184407 26 68 0.0 9.7 0.00 0.00 0.00 68 997.7
20260506183857 27 45 0.0 9.7 0.00 0.00 0.00 66 997.7
20260506183347 26 0 1.6 11.3 0.00 0.00 0.00 67 998.0
20260506182838 26 90 3.2 11.3 0.00 0.00 0.00 70 997.8
20260506182327 26 68 1.6 11.3 0.00 0.00 0.00 68 997.9
20260506180757 26 0 0.0 6.4 0.00 0.00 0.00 68 997.9
20260506180248 26 113 0.0 6.4 0.00 0.00 0.00 68 997.9
20260506175736 26 68 0.0 9.7 0.00 0.00 0.00 68 998.0
20260506175226 27 0 4.8 11.3 0.00 0.00 0.00 67 998.1
20260506174716 27 23 0.0 12.9 0.00 0.00 0.00 66 998.1
20260506174207 27 45 1.6 12.9 0.00 0.00 0.00 65 998.2
20260506173657 26 68 0.0 9.7 0.00 0.00 0.00 70 998.4
20260506173146 27 338 0.0 9.7 0.00 0.00 0.00 65 998.6
20260506172126 27 0 6.4 11.3 0.00 0.00 0.00 64 998.9
20260506171106 26 23 6.4 12.9 0.00 0.00 0.00 69 999.0
20260506170556 26 68 3.2 9.7 0.00 0.00 0.00 67 999.1